Location: Mountain Grove
(34.0887°N, 86.6172°W)
Time: 14:10:21
(UTC+00:00)

H-2A R/B - Pass Details

Date: 14 July 2020
Orbit: 577 x 656 km, 98.5° (Epoch: 12 August)

Event Time Altitude Azimuth Distance (km) Brightness Sun altitude
Rises 08:29:08 0° 136° (SE) 2,936 5.5 -23.0°
Reaches altitude 10° 08:31:41 10° 122° (ESE) 2,019 4.8 -22.7°
Maximum altitude 08:35:09 23° 70° (ENE) 1,333 4.4 -22.2°
Drops below altitude 10° 08:38:35 10° 17° (NNE) 1,992 5.6 -21.7°
Sets 08:41:05 0° 4° (N) 2,887 6.3 -21.4°
